TimeCDT,TemperatureF,Dew PointF,Humidity,Sea Level PressureIn,VisibilityMPH,Wind Direction,Wind SpeedMPH,Gust SpeedMPH,PrecipitationIn,Events,Conditions,WindDirDegrees,DateUTC
12:53 AM,73.0,71.1,93,30.03,10.0,ESE,3.5,-,N/A,,Clear,120,2013-08-21 05:53:00
1:53 AM,73.0,70.0,90,30.03,10.0,Calm,Calm,-,N/A,,Clear,0,2013-08-21 06:53:00
2:53 AM,71.1,70.0,96,30.03,10.0,SSE,3.5,-,N/A,,Clear,150,2013-08-21 07:53:00
3:53 AM,71.1,69.1,93,30.03,10.0,SE,3.5,-,N/A,,Clear,140,2013-08-21 08:53:00
4:53 AM,70.0,69.1,97,30.04,10.0,SE,3.5,-,N/A,,Clear,130,2013-08-21 09:53:00
5:53 AM,70.0,69.1,97,30.05,9.0,Calm,Calm,-,N/A,,Clear,0,2013-08-21 10:53:00
6:53 AM,70.0,69.1,97,30.07,7.0,Calm,Calm,-,N/A,,Clear,0,2013-08-21 11:53:00
7:53 AM,73.0,72.0,96,30.09,9.0,Calm,Calm,-,N/A,,Clear,0,2013-08-21 12:53:00
8:53 AM,78.1,73.0,84,30.10,10.0,Calm,Calm,-,N/A,,Clear,0,2013-08-21 13:53:00
9:53 AM,82.0,73.9,76,30.10,10.0,ESE,3.5,-,N/A,,Clear,110,2013-08-21 14:53:00
10:53 AM,84.9,72.0,65,30.10,10.0,Calm,Calm,-,N/A,,Clear,0,2013-08-21 15:53:00
11:53 AM,87.1,70.0,57,30.09,10.0,Calm,Calm,-,N/A,,Clear,0,2013-08-21 16:53:00
12:53 PM,89.1,68.0,50,30.07,10.0,Calm,Calm,-,N/A,,Partly Cloudy,0,2013-08-21 17:53:00
1:53 PM,91.9,68.0,45,30.05,10.0,Calm,Calm,-,N/A,,Scattered Clouds,0,2013-08-21 18:53:00
2:53 PM,93.9,66.9,41,30.02,10.0,Variable,4.6,-,N/A,,Clear,0,2013-08-21 19:53:00
3:53 PM,93.9,64.9,38,30.00,10.0,Variable,3.5,-,N/A,,Clear,0,2013-08-21 20:53:00
4:53 PM,93.9,66.0,40,29.98,10.0,SSE,6.9,-,N/A,,Mostly Cloudy,150,2013-08-21 21:53:00
5:53 PM,93.9,64.0,37,29.97,10.0,SE,4.6,-,N/A,,Partly Cloudy,140,2013-08-21 22:53:00
6:53 PM,93.0,64.0,38,29.97,10.0,SE,5.8,-,N/A,,Clear,130,2013-08-21 23:53:00
7:53 PM,88.0,66.0,48,29.99,10.0,ESE,5.8,-,N/A,,Scattered Clouds,110,2013-08-22 00:53:00
8:53 PM,86.0,66.9,53,29.99,10.0,SE,3.5,-,N/A,,Partly Cloudy,130,2013-08-22 01:53:00
9:53 PM,82.9,69.1,63,30.02,10.0,SE,9.2,-,N/A,,Clear,130,2013-08-22 02:53:00
10:53 PM,80.1,71.1,74,30.04,10.0,Calm,Calm,-,N/A,,Clear,0,2013-08-22 03:53:00
11:53 PM,78.1,70.0,76,30.05,10.0,ESE,3.5,-,N/A,,Clear,110,2013-08-22 04:53:00